Regional Weather Roundup
Issued by NWS Portland, ME

Current Version | Previous Version | Text Only | Print | Product List | Glossary Off
Versions: 1 2 3 4 5 6 7 8 9 10 11 12 13 14 15 16 17 18 19 20 21 22 23 24 25 26 27 28 29 30 31 32 33 34 35 36 37 38 39 40 41 42 43 44 45 46 47 48 49 50
000 ASUS41 KGYX 251310 RWRGYX WEATHER ROUNDUP FOR MAINE AND NEW HAMPSHIRE NATIONAL WEATHER SERVICE GRAY ME 900 AM EDT TUE APR 25 2017 MEZ002-005-006-010-012-015-018-020-021-024-026-027-029-251400- MAINE CITY SKY/WX TMP DP RH WIND PRES REMARKS PORTLAND CLOUDY 43 41 93 E14 30.38R FOG SANFORD LGT RAIN 43 43 100 NE8 30.36R BAR HARBOR SUNNY 44 29 55 E12G18 30.43R WISCASSET CLOUDY 47 42 83 VRB5 30.40R ROCKLAND CLOUDY 45 39 79 E15G22 30.40R FRYEBURG CLOUDY 48 25 40 E5 30.37R LEWISTONAUBURN CLOUDY 45 27 49 NE7 30.38R AUGUSTA CLOUDY 44 25 47 N10 30.38R WATERVILLE PTSUNNY 43 26 51 NE9 30.36F BANGOR MOSUNNY 45 23 42 NE7 30.43R GREENVILLE N/A 39 18 42 E9 30.37R MILLINOCKET SUNNY 39 15 37 E9 30.47S HOULTON SUNNY 39 13 34 E9 30.47R PRESQUE ISLE SUNNY 35 13 40 VRB5 30.49S FRENCHVILLE MOSUNNY 31 11 43 S6 30.46R CARIBOU SUNNY 34 13 41 E7 30.47R $$ NHZ002-005-008-009-011-012-014-251400- NEW HAMPSHIRE CITY SKY/WX TMP DP RH WIND PRES REMARKS PORTSMOUTH LGT RAIN 46 44 94 NE10 30.33R ROCHESTER LGT RAIN 44 42 93 CALM 30.34R NASHUA LGT RAIN 48 46 93 NE8 30.31S MANCHESTER LGT RAIN 47 43 86 NE9 30.30R CONCORD LGT RAIN 46 43 89 NE3 30.33R LACONIA LGT RAIN 43 36 76 E6 30.34R PLYMOUTH DRIZZLE 46 37 71 S6 30.32R BERLIN MOSUNNY 46 28 49 CALM 30.31S WHITEFIELD CLOUDY 51 29 42 E12 30.27R JAFFREY LGT RAIN 46 45 96 VRB5 30.27S KEENE LGT RAIN 47 43 86 N6 30.28R LEBANON CLOUDY 50 41 71 SE7 30.28R MT WASHINGTON PTSUNNY 34 30 86 SE24 N/A $$ VTZ005-007-008-251400- VERMONT CITY SKY/WX TMP DP RH WIND PRES REMARKS ST JOHNSBURY N/A 43 34 70 MISG 30.27R MONTPELIER MOSUNNY 44 36 73 NE3 30.30R BURLINGTON CLOUDY 45 31 58 CALM 30.24R $$ MAZ007-012-024-CTZ003-RIZ002-NYZ038-NYZ072-251400- SOUTHERN NEW ENGLAND AND NY CITY SKY/WX TMP DP RH WIND PRES REMARKS BOSTON LGT RAIN 48 46 93 NE15 30.28F WORCESTER LGT RAIN 46 44 93 NE15G24 30.24R NANTUCKET CLOUDY 49 46 90 NE14 30.19R PROVIDENCE LGT RAIN 51 50 96 NE13 30.23S HARTFORD LGT RAIN 50 47 89 N12 30.22S FOG ALBANY LGT RAIN 47 34 60 N5 30.21S NEW YORK CITY CLOUDY 53 49 86 NE21G30 30.09F $$ ANZ081-ANZ082-ANZ150-NHZ014-MEZ023>029-251400- COASTAL MARINE OBSERVATIONS STATION/POSITION TIME TEMP WIND PRES WAVE AIR SEA DIR/SP/G HT/PER (UTC) (F) (DEG/KT/KT) (MB) (FT/S) MOUNT DESERT ROC 1300 42 1029.3R JEFFREYS LEDGE 1206 44 N/A 2/13 CASHES LEDGE BUO 1250 42 43 1027.4F 3/12 GEORGES BANK BUO 1150 45 41 1024.2 4/13 $$ .............KEY.............. WCI - WIND CHILL TC - TEMPERATURE IN CELSIUS VSB - VISIBILITY IN MILES HX - HEAT INDEX FAIR- INDICATES FEW OR NO CLOUDS BELOW 12,000 FT, WITH NO SIGNIFICANT WEATHER AND/OR OBSTRUCTIONS TO VISIBILITY.

USA.gov is the U.S. government's official web portal to all federal, state and local government web resources and services.